Powrót do katalogu

FENGYUN 1C DEB

AktywnyPO
NORAD 30374·DEBRIS·🇨🇳 China

Wystrzelony May 10, 1999 z Taiyuan Satellite Launch Center

Loading…

Następne Przeloty (najbliższe 24 godziny)

TLE

ŚwieżeSource: Space-Track

Epoka: Sep 14, 2026, 13:16 UTC

1 30374U 99025ACM 26257.55345220  .00004958  00000-0  92629-3 0  9997
2 30374  99.2490 159.8455 0039961  49.9212  73.0015 14.64948274 29550

Śledź FENGYUN 1C DEB w czasie rzeczywistym z AllMySat

Download on the App Store